Total_Precipitation_Accumulation
0.09 0.26 0.63 0.96 1.74 1.89 1.28 0.71 0.56 0.48 0.48 0.52 0.54 0.52 0.57 0.72 1.04 1.84 1.76 1.32 1.17 1.42 1.90 2.61 2.87 2.62 2.37 2.32 2.22 2.28 2.20 2.16 2.37 2.50 2.46 2.28 2.24 2.50 2.58 2.52 2.52 2.63 2.55 2.23 2.11 1.85 1.61 1.64 1.71
0.21 0.45 0.82 1.28 1.87 1.53 1.10 0.56 0.42 0.41 0.37 0.47 0.51 0.43 0.41 0.48 0.45 0.72 1.13 1.26 1.15 1.24 1.50 1.88 2.26 2.19 2.09 2.04 2.10 2.13 2.04 2.05 2.20 2.27 2.41 2.37 2.27 2.50 2.70 2.56 2.52 2.67 2.48 2.23 2.01 1.79 1.56 1.47 1.54
0.38 0.62 1.01 1.53 1.19 0.81 0.70 0.41 0.36 0.40 0.48 0.66 0.76 0.51 0.47 0.69 0.60 0.75 0.90 0.93 1.02 1.15 1.30 1.63 1.92 1.94 1.91 1.92 2.11 2.16 2.03 2.00 2.10 2.23 2.39 2.50 2.54 2.56 2.69 2.54 2.56 2.68 2.63 2.35 2.03 1.82 1.60 1.50 1.52
0.47 0.75 1.05 1.10 0.52 0.33 0.36 0.28 0.34 0.43 0.71 0.83 0.86 0.73 0.67 0.72 0.64 0.69 0.71 0.79 0.98 1.18 1.37 1.64 1.81 1.76 1.85 1.86 2.10 2.17 2.14 2.06 2.08 2.25 2.28 2.41 2.64 2.78 2.83 2.67 2.65 2.69 2.58 2.27 2.00 1.79 1.59 1.48 1.50
0.47 0.86 1.21 0.76 0.25 0.19 0.19 0.16 0.23 0.38 0.62 0.83 0.85 0.96 1.05 1.01 0.77 0.67 0.69 0.85 0.98 1.16 1.46 1.58 1.77 1.79 1.95 2.11 2.26 2.25 2.18 2.05 2.05 2.09 2.01 2.17 2.60 2.87 2.95 2.90 2.83 2.74 2.58 2.23 1.97 1.77 1.58 1.50 1.56
0.62 0.99 0.88 0.48 0.24 0.17 0.16 0.15 0.25 0.45 0.65 0.80 0.97 1.13 1.21 1.12 0.86 0.77 0.77 0.94 1.05 1.10 1.42 1.57 1.82 1.89 1.99 2.19 2.49 2.52 2.24 2.12 2.07 2.12 2.03 2.10 2.35 2.73 2.87 3.00 3.02 2.88 2.64 2.21 1.96 1.74 1.56 1.54 1.62
0.50 0.65 0.50 0.32 0.22 0.18 0.17 0.21 0.31 0.45 0.55 0.84 1.12 1.24 1.22 1.28 1.06 0.88 1.02 1.11 1.40 1.20 1.31 1.51 1.76 1.93 2.03 2.18 2.41 2.43 2.38 2.30 2.27 2.32 2.18 2.20 2.39 2.60 2.79 3.09 3.03 2.85 2.66 2.31 2.01 1.79 1.59 1.59 1.61
0.30 0.39 0.30 0.22 0.14 0.13 0.15 0.21 0.30 0.42 0.69 0.95 1.01 1.19 1.38 1.22 1.17 1.16 1.30 1.36 1.55 1.47 1.32 1.40 1.57 1.91 2.02 2.08 2.30 2.48 2.46 2.41 2.41 2.46 2.39 2.57 2.72 2.75 2.81 3.09 3.17 2.91 2.67 2.36 2.21 1.98 1.77 1.73 1.63
0.29 0.39 0.29 0.18 0.09 0.10 0.16 0.24 0.32 0.37 0.57 0.77 0.92 0.96 0.87 0.97 1.18 1.27 1.45 1.64 1.71 1.68 1.63 1.65 1.60 1.69 1.87 1.93 2.17 2.69 2.72 2.62 2.61 2.72 2.90 3.12 3.36 3.32 3.38 3.33 3.43 3.28 2.98 2.82 2.68 2.45 2.11 1.93 1.71
0.24 0.27 0.16 0.09 0.05 0.07 0.12 0.21 0.34 0.44 0.75 1.14 1.22 1.32 1.11 1.19 1.33 1.36 1.43 1.54 1.70 1.81 1.84 2.04 1.85 1.74 1.83 1.85 2.52 3.30 3.15 3.00 3.05 3.15 3.25 3.60 3.74 4.02 3.55 3.87 4.11 4.11 3.93 3.74 3.57 3.40 2.80 2.12 1.75
0.08 0.09 0.06 0.05 0.04 0.04 0.07 0.13 0.18 0.38 0.86 1.35 1.45 1.52 1.42 1.41 1.46 1.52 1.62 1.75 1.90 2.11 1.97 1.92 2.05 2.14 2.16 2.28 2.54 2.92 3.26 3.38 3.41 3.35 3.34 3.61 3.55 3.71 3.72 4.17 4.94 5.01 4.39 3.92 4.02 3.87 3.07 2.64 2.65
0.05 0.04 0.04 0.04 0.03 0.04 0.07 0.13 0.23 0.42 0.94 1.24 1.17 1.10 1.21 1.44 1.57 1.71 2.09 2.31 2.51 2.64 2.63 2.68 2.64 2.68 2.72 2.57 2.44 2.53 2.76 2.86 2.91 3.00 3.05 3.23 3.57 3.74 3.91 4.27 4.36 4.42 4.16 4.26 4.09 3.97 3.48 3.18 2.92
0.04 0.03 0.04 0.04 0.04 0.05 0.09 0.18 0.32 0.48 0.82 0.83 0.76 0.86 1.32 1.56 1.74 2.05 2.30 2.52 2.76 3.11 3.39 3.96 3.94 3.46 3.21 2.95 2.65 2.39 2.62 2.48 2.32 2.49 2.80 2.91 3.11 3.45 3.67 3.59 3.64 3.36 3.49 3.78 3.87 3.49 3.53 3.40 3.33
0.03 0.04 0.05 0.07 0.06 0.07 0.12 0.18 0.44 0.58 0.69 0.82 0.83 1.14 1.60 2.08 2.24 2.49 2.82 3.23 3.52 3.95 4.00 4.23 4.82 4.25 3.64 3.12 2.82 2.62 2.49 2.55 2.41 2.54 2.51 2.75 2.93 3.07 3.16 3.10 3.24 3.08 3.12 3.25 3.25 3.22 3.49 3.52 3.38
0.06 0.08 0.15 0.15 0.11 0.13 0.17 0.37 0.58 0.72 0.74 1.00 1.12 1.36 1.90 2.54 2.55 2.85 3.17 3.65 4.05 4.49 4.66 4.78 5.13 4.88 4.44 3.87 3.27 2.80 2.61 2.46 2.51 2.65 2.45 2.53 2.70 2.78 2.84 2.91 2.88 2.89 2.76 2.79 2.77 2.86 3.13 3.13 3.02
0.07 0.16 0.32 0.25 0.16 0.16 0.25 0.75 0.88 0.77 0.76 1.08 1.33 1.59 2.08 2.74 2.81 3.13 3.62 4.11 4.75 5.17 5.44 5.48 5.25 5.31 5.02 4.44 3.86 3.42 3.17 2.93 2.75 2.58 2.43 2.25 2.34 2.38 2.53 2.50 2.46 2.47 2.40 2.42 2.60 2.65 2.89 3.07 3.10
0.12 0.18 0.30 0.30 0.21 0.19 0.28 0.77 0.81 0.57 0.75 1.04 1.38 1.73 2.06 2.40 2.88 3.48 3.99 4.53 5.40 6.33 6.79 6.57 5.93 5.58 5.17 4.71 4.29 4.15 3.94 3.58 3.18 2.92 2.68 2.51 2.30 2.20 2.29 2.39 2.47 2.16 2.21 2.31 2.15 2.48 2.71 3.01 3.07
0.10 0.14 0.24 0.33 0.25 0.29 0.40 0.51 0.64 0.68 0.88 1.09 1.32 1.53 1.88 2.17 2.56 3.27 3.86 4.52 5.45 6.62 7.36 7.26 6.60 5.82 5.20 4.92 4.62 4.54 4.23 3.80 3.35 3.15 2.99 2.66 2.49 2.26 2.30 2.16 2.06 1.86 2.07 2.38 2.51 2.90 2.89 2.84 2.83
0.07 0.12 0.20 0.29 0.24 0.34 0.44 0.54 0.68 0.84 1.07 1.12 1.21 1.33 1.61 1.93 2.32 3.04 3.69 4.23 4.90 5.65 6.22 6.13 5.52 5.07 4.62 4.20 3.72 3.70 3.56 3.35 3.15 2.92 2.69 2.66 2.55 2.39 2.44 2.22 2.27 1.99 2.06 2.19 2.25 2.52 2.68 2.62 2.60
0.07 0.11 0.18 0.23 0.20 0.21 0.38 0.66 0.81 0.87 1.04 1.00 1.01 1.07 1.29 1.68 2.30 3.05 3.66 3.86 3.90 4.16 4.40 3.90 3.72 3.74 3.46 3.30 3.31 3.24 3.11 2.84 2.70 2.70 2.85 2.51 2.47 2.38 2.23 2.40 2.16 2.06 2.27 2.30 2.35 2.58 2.67 2.59 2.64
0.09 0.12 0.15 0.22 0.22 0.28 0.45 0.86 1.06 0.96 0.98 0.84 0.82 1.04 1.52 1.95 2.38 2.90 3.08 3.10 3.00 2.96 2.93 2.71 2.66 2.99 3.02 3.11 3.17 3.18 3.16 2.99 2.80 2.61 2.74 2.41 2.23 2.26 2.36 2.30 2.30 2.34 2.03 2.27 2.44 2.46 2.62 2.68 2.59
0.08 0.08 0.06 0.09 0.18 0.42 0.59 1.07 1.30 1.20 1.13 0.86 0.90 1.30 1.80 2.12 2.38 2.37 1.96 1.80 1.95 2.05 2.16 2.42 2.51 2.67 2.64 2.81 2.78 2.70 2.48 2.36 2.29 2.26 2.42 2.51 2.29 2.19 2.19 2.28 2.54 2.58 2.24 2.42 2.01 2.15 2.47 2.65 2.54
0.06 0.05 0.04 0.08 0.19 0.46 0.75 1.21 1.48 1.36 1.14 0.89 0.85 0.92 1.31 1.47 1.44 1.31 1.18 1.21 1.43 1.72 1.98 2.32 2.43 2.48 2.41 2.41 2.55 2.73 2.64 2.65 2.52 2.43 2.67 2.73 2.77 2.51 2.16 2.13 2.38 2.55 2.47 2.50 2.33 2.55 2.37 2.28 2.26
0.05 0.07 0.14 0.23 0.41 0.89 0.98 1.10 1.41 1.29 1.06 0.93 0.80 0.71 0.91 0.97 0.83 0.88 0.99 1.20 1.45 1.62 1.75 1.99 2.13 2.32 2.34 2.40 2.52 2.57 2.61 2.77 2.73 2.64 2.54 2.46 2.56 2.50 2.28 2.25 2.52 2.52 2.47 2.55 2.46 2.46 2.30 2.26 2.24
0.05 0.07 0.29 0.64 0.96 1.11 0.84 0.98 1.33 0.99 0.79 0.67 0.56 0.50 0.52 0.62 0.71 0.88 1.01 1.21 1.32 1.41 1.46 1.64 1.71 1.89 2.06 2.17 2.26 2.34 2.48 2.60 2.55 2.62 2.57 2.48 2.29 2.16 2.26 2.39 2.64 2.53 2.46 2.40 2.48 2.46 2.42 2.44 2.45
0.05 0.05 0.13 0.26 0.39 0.61 0.79 1.20 1.31 0.91 0.61 0.47 0.44 0.44 0.45 0.53 0.64 0.72 0.86 0.94 1.03 1.22 1.46 1.65 1.61 1.60 1.63 1.68 1.84 2.02 2.08 2.19 2.24 2.53 2.46 2.41 2.30 2.16 2.25 2.36 2.28 2.24 2.28 2.15 2.43 2.30 2.27 2.39 2.41
0.05 0.04 0.05 0.08 0.12 0.38 0.84 1.14 1.10 0.76 0.59 0.54 0.53 0.54 0.54 0.56 0.68 0.69 0.70 0.86 0.94 0.92 1.06 1.28 1.40 1.46 1.47 1.45 1.55 1.62 1.65 1.80 2.03 2.10 1.97 1.85 1.96 2.08 2.18 2.18 2.22 2.24 2.24 2.29 2.50 2.39 2.38 2.55 2.38
0.05 0.05 0.05 0.07 0.13 0.29 0.67 1.19 1.46 1.16 0.83 0.65 0.70 0.63 0.57 0.53 0.59 0.72 0.76 0.80 0.83 0.82 0.99 1.15 1.27 1.37 1.39 1.35 1.36 1.29 1.44 1.56 1.76 1.84 1.84 1.76 1.72 1.92 2.08 2.15 2.24 2.28 2.21 2.26 2.43 2.29 2.43 2.53 2.46
0.06 0.06 0.07 0.09 0.10 0.19 0.50 0.82 0.89 1.00 0.85 0.63 0.66 0.62 0.57 0.51 0.52 0.65 0.69 0.76 0.74 0.73 0.85 1.03 1.23 1.30 1.20 1.23 1.26 1.34 1.42 1.60 1.67 1.65 1.71 1.73 1.75 1.90 2.03 2.12 2.20 2.20 2.22 2.35 2.44 2.29 2.43 2.45 2.55
0.08 0.09 0.10 0.11 0.13 0.14 0.26 0.45 0.51 0.58 0.69 0.89 0.85 0.70 0.68 0.64 0.57 0.63 0.68 0.73 0.69 0.69 0.77 0.88 1.06 1.20 1.23 1.23 1.30 1.40 1.47 1.56 1.63 1.56 1.67 1.85 1.90 1.97 2.07 2.19 2.29 2.20 2.27 2.40 2.35 2.32 2.40 2.47 2.45